Change the Weather History Date:

Saturday, April 12, 2014

  Actual Average (KBWI) Record (KBWI)
Temperature  
Mean Temperature 58 °F 53 °F  
Max Temperature 66 °F 64 °F 88 °F (1977)
Min Temperature 52 °F 42 °F 27 °F (1874)
Degree Days  
Heating Degree Days 7 13  
Month to date heating degree days 174  
Since 1 July heating degree days 4435  
Cooling Degree Days 0 0  
Month to date cooling degree days 0  
Year to date cooling degree days 1  
Growing Degree Days 8 (Base 50)    
Moisture  
Dew Point 48 °F    
Average Humidity 70    
Maximum Humidity 97    
Minimum Humidity 42    
Precipitation  
Precipitation 0.00 in 0.10 in 1.48 in (1943)
Month to date precipitation 1.35  
Year to date precipitation 11.20  
Snow  
Snow 0.00 in 0.00 in 0.40 in (1959)
Month to date snowfall 0.0  
Since 1 July snowfall 20.1  
Snow Depth -    
Sea Level Pressure  
Sea Level Pressure 30.18 in    
Wind  
Wind Speed 5 mph (SE)    
Max Wind Speed 14 mph    
Max Gust Speed 23 mph    
Visibility 10 miles    
Events      
T = Trace of Precipitation, MM = Missing Value Source: NWS Daily Summary

Daily Weather History Graph

Daily Weather History Graph

Search for Another Location

Airport or City:

Trip Planner

Search our weather history database for the weather conditions in past years. The results will help you decide how hot, cold, wet, or windy it might be!

Date:

Astronomy

Apr. 12, 2014 Rise Set
Actual Time 6:33 AM EDT 7:40 PM EDT
Civil Twilight 6:06 AM EDT 8:07 PM EDT
Nautical Twilight 5:33 AM EDT 8:40 PM EDT
Astronomical Twilight 4:59 AM EDT 9:14 PM EDT
Moon 5:17 PM EDT (4/12) 4:58 AM EDT (4/12)
Length of Visible Light 14h 01m
Length of Day
13h 06m
Waxing Gibbous, 93% of the Moon is Illuminated
Apr 12
Waxing Gibbous
Apr 15
Full
Apr 22
Last Quarter
Apr 29
New
May 6
First Quarter

Hourly Weather History & Observations

Time (EDT) Temp. Dew Point Humidity Pressure Visibility Wind Dir Wind Speed Gust Speed Precip Events Conditions
12:54 AM 55.0 °F 52.0 °F 89% 30.06 in 10.0 mi Calm Calm - N/A   Partly Cloudy
1:54 AM 55.0 °F 52.0 °F 89% 30.06 in 10.0 mi Calm Calm - N/A   Mostly Cloudy
2:54 AM 54.0 °F 52.0 °F 93% 30.08 in 9.0 mi NNW 3.5 mph - N/A   Scattered Clouds
3:54 AM 53.1 °F 52.0 °F 96% 30.10 in 7.0 mi Calm Calm - N/A   Scattered Clouds
4:54 AM 54.0 °F 52.0 °F 93% 30.13 in 9.0 mi Calm Calm - N/A   Partly Cloudy
5:54 AM 53.1 °F 51.1 °F 93% 30.14 in 8.0 mi NW 3.5 mph - N/A   Clear
6:54 AM 52.0 °F 51.1 °F 97% 30.19 in 5.0 mi Calm Calm - N/A   Clear
7:54 AM 57.9 °F 50.0 °F 75% 30.22 in 10.0 mi North 10.4 mph - N/A   Clear
8:54 AM 60.1 °F 48.0 °F 64% 30.25 in 10.0 mi North 8.1 mph - N/A   Clear
9:54 AM 62.1 °F 46.0 °F 56% 30.26 in 10.0 mi NE 3.5 mph - N/A   Clear
10:54 AM 61.0 °F 48.0 °F 62% 30.28 in 10.0 mi SE 4.6 mph - N/A   Clear
11:54 AM 62.1 °F 46.0 °F 56% 30.28 in 10.0 mi SE 8.1 mph - N/A   Clear
12:54 PM 64.0 °F 41.0 °F 43% 30.27 in 10.0 mi SE 11.5 mph - N/A   Clear
1:54 PM 64.9 °F 41.0 °F 42% 30.24 in 10.0 mi SE 11.5 mph - N/A   Clear
2:54 PM 64.9 °F 43.0 °F 45% 30.21 in 10.0 mi SE 9.2 mph - N/A   Clear
3:54 PM 63.0 °F 44.1 °F 50% 30.17 in 10.0 mi ESE 8.1 mph - N/A   Clear
4:54 PM 62.1 °F 46.9 °F 58% 30.16 in 10.0 mi SE 11.5 mph - N/A   Clear
5:54 PM 63.0 °F 46.0 °F 54% 30.17 in 10.0 mi SE 9.2 mph - N/A   Clear
6:54 PM 60.1 °F 46.9 °F 62% 30.17 in 10.0 mi SE 10.4 mph - N/A   Clear
7:54 PM 63.0 °F 50.0 °F 63% 30.17 in 10.0 mi SSE 10.4 mph - N/A   Clear
8:54 PM 61.0 °F 52.0 °F 72% 30.18 in 10.0 mi South 13.8 mph 23.0 mph N/A   Clear
9:54 PM 59.0 °F 50.0 °F 72% 30.18 in 10.0 mi South 11.5 mph - N/A   Clear
10:54 PM 57.0 °F 51.1 °F 81% 30.18 in 10.0 mi SSE 8.1 mph - N/A   Clear
11:54 PM 55.9 °F 51.1 °F 84% 30.18 in 9.0 mi SSE 8.1 mph - N/A   Clear